Regional Weather Roundup
Issued by NWS Tiyan, Guam

Home | Current Version | Previous Version | Text Only | Print | Product List | Glossary On
Versions: 1 2 3 4 5 6 7 8 9 10 11 12 13 14 15 16 17 18 19 20 21 22 23 24 25 26 27 28
000
ASGM40 PGUM 162212
RWRGUM
WEATHER ROUNDUP FOR THE MARIANAS
NATIONAL WEATHER SERVICE TIYAN GU
800 AM GSST THU APR 17 2014

GUZ001>004-162300-
MARIANA ISLANDS-

CITY           SKY/WX    TMP DP  RH WIND       PRES   REMARKS
GUAM AIRPORT   PTSUNNY   81  79  94 E9        29.85R
ANDERSEN AFB   PTSUNNY   81  77  89 E9        29.85R
ROTA AIRPORT   PTSUNNY   79  75  89 E10       29.85R
TINIAN AP      PTSUNNY   79  75  89 NE20      29.84R
SAIPAN AP      LGT RAIN  79  75  89 NE17G29   29.85R FOG

$$




USA.gov is the U.S. government's official web portal to all federal, state and local government web resources and services.